Weather in Yanymovo

Russia / Chuvash Republic     56°00′05″N   46°30′05″E
temp.,
°C
wind,
m/s
gust,
m/s
humid.,
%
clouds,
%
prec.,
mm/h
press.,
hPa
HPBL,
m
25 february, thu
thu2500:00−23ssw349494 0.0 103475
03:00−22s479497 0.0 1032177
06:00−20s51091100 0.0 1029275
09:00−18s61097100 0.5 1025340
12:00−16s71195100 1.3 1021506
15:00−14s61194100 2.5 1019608
18:00−13sse5995100 1.3 1016482
21:00−14sse489599 1.5 1015255
26 february, fri
fri2600:00−14se479597 0.1 1014165
03:00−14se369696 0.3 1015165
06:00−15sse369691 0.1 1013129
09:00−13se369695 0.1 1012159
12:00−10se5895100 0.1 1009241
15:00−7se71295100 0.7 1005304
18:00−4sse81395100 2.9 1000288
21:00+2wsw512100100 7.7 996414
27 february, sat
sat2700:00+1w71397100 1.0 994664
03:000w61197100 1.1 993607
06:000w61298100 1.4 991600
09:000w5999100 2.8 992559
12:00−5w61095100 0.6 994364
15:00−6nnw71093100 1.1 997543
18:00−11n599399 0.1 1002531
21:00−14nnw489599 0.2 1005223
28 february, sun
sun2800:00−17nnw349725 0.0 100662
03:00−18nnw339717 0.0 100754
06:00−20nnw34990 0.0 100963
09:00−18nnw369626 0.0 1010204
12:00−14nnw359372 0.0 1012327
15:00−12nnw469185 0.1 1013525
18:00−14nnw3696100 0.1 1015116
21:00−16nnw3597100 0.1 101895
1 march, mon
mon100:00−18nnw239883 0.0 101926
03:00−20nnw339960 0.0 102130
06:00−21nnw239910 0.0 102324
09:00−18nw35966 0.0 1024161
12:00−13wnw349049 0.0 1025309
15:00−10wsw469574 0.0 1024302
18:00−10wsw4896100 0.0 1023209
21:00−6wsw61295100 0.3 1022426